Weather in Delta

Canada     49°05′28″N   123°04′49″W
temp.,
°C
wind,
m/s
gust,
m/s
humid.,
%
clouds,
%
prec.,
mm/h
press.,
hPa
HPBL,
m
3 march, wed
wed301:00+4e458286 0.0 1014220
04:00+4e457593 0.0 1013172
07:00+5e4674100 0.0 1012206
10:00+6e3470100 0.0 1010257
13:00+8ssw1265100 0.0 1010230
16:00+7w2269100 0.0 100980
19:00+7nnw227288 0.0 101125
22:00+6ene227884 0.0 101243
4 march, thu
thu401:00+6ene4671100 0.0 1012168
04:00+6e5769100 0.0 1012192
07:00+5e5766100 0.0 1012211
10:00+7e4765100 0.0 1013235
13:00+9se1269100 0.0 101299
16:00+9ene1272100 0.0 101222
19:00+9se2480100 0.1 101480
22:00+8se101485100 0.1 1015462
5 march, fri
fri501:00+8se61094100 1.6 1014375
04:00+7ese5895100 4.8 1010290
07:00+8ese4792100 0.8 1009205
10:00+8e5989100 1.6 1008359
13:00+9se101785100 0.2 1007713
16:00+7w4790100 2.1 1007549
19:00+6ene6793100 3.6 1008154
22:00+7e61186100 5.0 1008609
6 march, sat
sat601:00+7se101581100 0.2 1008931
04:00+6sse131588100 1.3 1009997
07:00+7sw121579100 0.9 1012729
10:00+7sw9116771 0.9 1015969
13:00+8ssw697026 0.3 1016521
16:00+7s567338 0.6 1017369
19:00+7se3372100 0.0 101887
22:00+5ene6879100 0.0 1019259
7 march, sun
sun701:00+5e6976100 0.0 1018473
04:00+5e6874100 0.0 1018299
07:00+5ene101371100 0.0 1017395
10:00+6se81184100 0.8 1018874
13:00+7s4468100 0.9 1019423
16:00+7sse887492 1.8 1019332
19:00+6s6880100 1.2 1021375
22:00+5s5684100 2.3 1022401